Regional Weather Roundup
Issued by NWS

Home | Current Version | Previous Version | Text Only | Print | Product List | Glossary Off
Versions: 1 2 3 4 5 6 7 8 9 10 11 12 13 14 15 16 17 18 19 20 21 22 23 24 25 26 27 28 29 30 31 32 33 34 35 36 37 38 39 40 41 42 43 44 45 46 47 48 49 50

000
ASUS43 KOAX 032202
RWRNE

WEATHER ROUNDUP FOR NEBRASKA
NATIONAL WEATHER SERVICE OMAHA NE
500 PM CDT SUN MAY 03 2015

NOTES: SATELLITE DATA IS BEING USED TO AUGMENT CLOUD COVER ABOVE
       12000 FEET.
       "FAIR" INDICATES FEW OR NO CLOUDS BELOW 12,000 FEET WITH NO
       SIGNIFICANT WEATHER AND/OR OBSTRUCTIONS TO VISIBILITY.

  * THESE STATIONS DO NOT REPORT WEATHER SUCH AS RAIN...SNOW OR FOG.

NEZ001>004-019>022-054>056-032300-
NEBRASKA PANHANDLE

CITY           SKY/WX    TMP DP  RH WIND       PRES   REMARKS
SCOTTSBLUFF    MOSUNNY   70  38  31 NE14      29.95S
ALLIANCE       SUNNY     70  39  32 NE17G28   29.95S
CHADRON        SUNNY     71  41  33 NE14G23   29.96S
KIMBALL        PTSUNNY   66  39  37 NE13      29.96S
SIDNEY         MOSUNNY   70  41  34 NE16      29.94S
$$

NEZ057>060-069>072-079>082-032300-
SOUTHWEST NEBRASKA

CITY           SKY/WX    TMP DP  RH WIND       PRES   REMARKS
NORTH PLATTE   SUNNY     78  46  32 NE15G24   29.84F
IMPERIAL       SUNNY     82  41  23 N17G23    29.85S
MCCOOK         MOSUNNY   88  43  20 N13       29.77F
$$

NEZ005>010-023>029-035>040-094-032300-
NORTH CENTRAL NEBRASKA

CITY           SKY/WX    TMP DP  RH WIND       PRES   REMARKS
VALENTINE      MOSUNNY   73  36  25 NE23G31   29.93S
AINSWORTH      MOSUNNY   72  39  30 NE21G28   29.91S
BROKEN BOW     SUNNY     81  48  31 N13G23    29.81S
ORD            SUNNY     80  52  37 N21G26    29.77S
$$

NEZ041-046>049-061>064-073>077-083>087-032300-
SOUTH CENTRAL NEBRASKA

CITY           SKY/WX    TMP DP  RH WIND       PRES   REMARKS
GRAND ISLAND   SUNNY     89  42  19 W10G20    29.72F
AURORA         SUNNY     91  36  14 W17       29.71S
HASTINGS       MOSUNNY   90  40  17 W17G23    29.72F
KEARNEY *      SUNNY     90  43  19 W13       29.74S
$$

NEZ011>018-030>034-042>045-032300-
NORTHEAST NEBRASKA

CITY           SKY/WX    TMP DP  RH WIND       PRES   REMARKS
NORFOLK        MOSUNNY   88  54  31 NE14      29.72S
ALBION         MOSUNNY   86  46  24 NW9       29.72F
BLAIR          PTSUNNY   83  56  40 S9        29.74F
COLUMBUS *     PTSUNNY   81  57  44 E5        29.74S
FREMONT        MOSUNNY   79  59  50 SE6       29.73F
TEKAMAH        MOSUNNY   89  56  32 S13G21    29.71S
$$

NEZ050>053-065>068-078-088>093-032300-
SOUTHEAST NEBRASKA

CITY           SKY/WX    TMP DP  RH WIND       PRES   REMARKS
LINCOLN        TSTM      78  60  53 SE9       29.72F
OMAHA EPPLEY   PTSUNNY   81  61  50 SE6       29.72F
BEATRICE       MOSUNNY   85  58  39 S13       29.73F
FALLS CITY     MOSUNNY   84  57  39 SW18G25   29.77S
NEBRASKA CITY  PTSUNNY   82  53  36 E9        29.75F
PLATTSMOUTH    CLOUDY    73  59  60 SE9       29.75F
$$

NEZ044-045-051>053-067-032300-
OMAHA AREA

CITY           SKY/WX    TMP DP  RH WIND       PRES   REMARKS
OMAHA EPPLEY   PTSUNNY   81  61  50 SE6       29.72F
BLAIR          PTSUNNY   83  56  40 S9        29.74F
FREMONT        MOSUNNY   79  59  50 SE6       29.73F
OFFUTT AFB     MOSUNNY   77  60  54 S10       29.71F
PLATTSMOUTH    CLOUDY    73  59  60 SE9       29.75F
WAHOO          FAIR      79  56  46 SE5       29.72F
$$


USA.gov is the U.S. government's official web portal to all federal, state and local government web resources and services.